Home   Weather   Milwaukee   Past weeks
Flag for USA

Past Weather in Milwaukee, Wisconsin, USA — Yesterday and Last 2 Weeks

Now
30 °F

Light snow. Mostly cloudy.


Feels Like: 22 °F
Forecast: 28 / 19 °F
Wind: 9 mph from Northwest

Location: Milwaukee / Timmerman

Current Time: Jan 17, 2019 at 7:37:01 pm

Latest Report: Jan 17, 2019 at 6:45 pm


Visibility: 7 mi

Pressure: 30.03 "Hg

Humidity: 69%

Dew Point: 21 °F

Location of MilwaukeeLocation

Past Weather in Milwaukee — Graph

°F

Milwaukee Temperature Yesterday

Maximum temperature yesterday: 32 °F (at 12:15 am)
Minimum temperature yesterday: 21 °F (at 5:45 pm)
Average temperature yesterday: 28 °F

High & Low Weather Summary for the Past Weeks

 TemperatureHumidityPressure
High50 °F (Jan 5, 1:45 pm)93% (Jan 4, 11:15 pm)30.46 "Hg (Jan 4, 11:15 pm)
Low14 °F (Jan 9, 9:35 pm)43% (Jan 5, 2:45 pm)29.43 "Hg (Jan 7, 2:30 pm)
Average29 °F72%30.11 "Hg
* Reported Jan 2 5:45 pm — Jan 17 5:14 pm, Milwaukee. Weather by CustomWeather, © 2019

Note: Actual official high and low records may vary slightly from our data, if they occured in-between our weather recording intervals... More about our weather records

Advertising

Milwaukee Weather History for the Previous 24 Hours

Scroll right to see more
 ConditionsComfort  
Time TempWeatherWind HumidityBarometerVisibility
5:14 pm
Thu, Jan 17
32 °FMostly cloudy.6 mph64%30.00 "Hg10 mi
4:45 pm32 °FMostly cloudy.7 mph64%30.00 "Hg10 mi
3:45 pm34 °FOvercast.6 mph60%30.00 "Hg10 mi
2:45 pm34 °FOvercast.3 mph60%30.00 "Hg10 mi
1:45 pm34 °FOvercast.3 mph60%30.00 "Hg10 mi
12:45 pm34 °FOvercast.No wind65%30.02 "Hg10 mi
11:45 am34 °FMore clouds than sun.No wind65%30.05 "Hg10 mi
10:45 am32 °FOvercast.5 mph69%30.08 "Hg10 mi
9:45 am28 °FOvercast.No wind74%30.11 "Hg10 mi
8:45 am27 °FOvercast.No wind80%30.12 "Hg10 mi
8:15 am25 °FPartly sunny.No wind80%30.12 "Hg10 mi
7:45 am21 °FSunny.No wind86%30.12 "Hg10 mi
7:15 am21 °FPassing clouds.No wind86%30.13 "Hg10 mi
6:55 am21 °FMostly cloudy.No wind86%30.14 "Hg10 mi
6:35 am23 °FPartly cloudy.No wind80%30.14 "Hg10 mi
6:15 am21 °FClear.No wind86%30.15 "Hg10 mi
5:55 am23 °FClear.No wind80%30.14 "Hg10 mi
5:35 am23 °FPassing clouds.No wind80%30.14 "Hg10 mi
5:15 am23 °FPartly cloudy.No wind80%30.15 "Hg10 mi
4:55 am23 °FOvercast.No wind80%30.16 "Hg10 mi
4:35 am23 °FPartly cloudy.No wind80%30.16 "Hg10 mi
4:15 am23 °FPassing clouds.No wind80%30.18 "Hg10 mi
3:55 am23 °FPartly cloudy.No wind80%30.18 "Hg10 mi
3:35 am23 °FPartly cloudy.No wind80%30.19 "Hg10 mi
3:15 am27 °FPassing clouds.No wind69%30.20 "Hg10 mi
2:35 am27 °FClear.No wind69%30.23 "Hg10 mi
2:15 am27 °FClear.No wind69%30.24 "Hg10 mi
1:55 am27 °FPassing clouds.No wind69%30.24 "Hg10 mi
1:35 am27 °FPassing clouds.No wind69%30.24 "Hg10 mi
12:55 am27 °FOvercast.No wind69%30.25 "Hg10 mi
12:35 am27 °FOvercast.3 mph69%30.26 "Hg10 mi
12:15 am27 °FOvercast.3 mph69%30.26 "Hg10 mi
11:55 pm
Wed, Jan 16
27 °FOvercast.No wind64%30.27 "Hg10 mi
11:35 pm27 °FPassing clouds.5 mph64%30.27 "Hg10 mi
11:15 pm27 °FPassing clouds.5 mph64%30.27 "Hg10 mi
10:55 pm27 °FClear.5 mph64%30.27 "Hg10 mi
10:35 pm27 °FClear.6 mph64%30.28 "Hg10 mi
10:15 pm27 °FClear.6 mph64%30.28 "Hg10 mi
9:55 pm27 °FClear.6 mph59%30.28 "Hg10 mi
9:35 pm27 °FClear.6 mph59%30.28 "Hg10 mi
9:15 pm27 °FClear.5 mph59%30.28 "Hg10 mi
8:55 pm25 °FClear.5 mph63%30.28 "Hg10 mi
7:45 pm23 °FClear.5 mph63%30.30 "Hg10 mi
Weather by CustomWeather, © 2019

See weather overview